Temp
16 16 17 17 17 18 18 19 19 20 20 21 22 22 23 24 25 24 32 31 28 26 24 24 27 28 25 28 26 27 31 31 30 33 31 32 32 32 32 31 31 31 31 29 26
16 16 16 17 17 18 18 18 19 20 20 21 21 22 23 24 24 30 30 29 29 26 25 24 28 29 27 27 26 26 32 32 31 32 32 32 33 32 31 30 29 30 30 28 27
16 16 17 17 17 18 18 19 19 20 20 21 21 22 23 24 29 34 29 29 28 27 29 26 27 31 29 31 29 30 30 31 32 32 30 32 31 33 32 30 30 29 28 28 27
16 17 17 17 18 18 19 19 19 20 20 21 21 22 23 23 32 30 28 28 26 26 29 30 29 31 33 32 32 32 30 32 31 32 31 31 28 32 32 30 31 29 29 29 29
16 17 17 17 18 18 19 19 20 20 21 21 21 22 24 30 32 26 27 26 24 27 31 32 32 32 33 34 34 34 33 33 33 32 31 30 30 30 29 30 30 30 30 30 30
16 16 16 17 18 19 19 20 21 21 21 21 21 21 25 29 27 26 25 24 27 29 31 33 33 34 34 34 34 34 34 33 33 31 31 30 29 30 29 30 29 29 30 30 30
16 16 16 17 17 19 20 21 21 22 22 21 21 20 26 30 26 26 26 27 28 30 32 32 32 32 34 34 33 34 33 33 32 32 31 31 29 29 29 29 28 29 30 30 30
15 15 15 16 18 19 20 21 21 22 22 21 20 21 28 25 25 25 26 27 28 28 30 31 31 33 33 34 34 34 34 34 33 32 31 31 31 29 29 29 28 30 30 30 30
15 16 16 17 18 20 20 20 20 21 21 20 21 24 29 24 26 28 27 29 29 29 29 30 32 34 33 34 34 34 35 34 32 33 32 32 32 30 30 30 30 30 30 30 30
15 16 17 18 19 20 20 20 20 20 18 19 21 25 28 29 28 28 28 28 30 31 30 31 33 33 34 35 34 35 35 35 34 33 31 31 32 31 30 31 31 31 31 30 31
16 17 18 18 19 20 20 20 25 25 25 26 27 27 28 27 27 28 28 29 31 31 31 32 33 33 34 35 36 35 35 35 34 33 32 33 33 33 31 31 32 31 31 31 31
17 18 18 19 20 20 21 25 22 21 24 27 26 26 26 26 27 29 28 30 30 31 32 32 32 35 35 35 35 34 34 35 34 33 33 34 34 34 33 31 33 32 32 32 32
18 18 19 19 19 20 22 21 19 19 25 27 27 27 27 26 27 29 29 31 31 31 32 33 33 35 35 34 34 35 35 35 34 33 34 33 34 34 34 33 32 33 33 33 32
18 19 19 20 20 19 22 19 19 19 26 27 28 27 27 27 27 29 30 31 31 31 33 33 35 34 34 33 34 34 36 35 34 34 34 34 35 34 34 33 32 32 33 33 33
19 20 20 21 20 23 20 19 20 21 25 27 28 27 29 27 28 29 29 30 30 31 33 32 33 33 32 33 35 34 36 35 35 34 35 35 34 37 35 33 33 33 33 34 33
20 20 20 19 18 20 19 20 22 25 25 26 28 27 28 28 28 29 29 30 31 32 33 33 34 34 34 35 35 35 34 34 34 35 34 35 35 36 36 35 35 34 34 34 34
20 21 20 19 23 19 20 24 25 25 26 25 26 27 27 27 28 28 28 28 29 29 29 31 32 33 34 33 34 34 34 32 32 33 33 36 34 35 37 37 36 35 35 34 34
21 21 19 19 18 18 23 26 23 24 24 25 26 27 27 27 28 28 28 29 30 31 32 30 30 32 33 33 33 33 34 33 31 33 35 36 33 36 37 37 38 37 36 35 34
20 20 21 20 18 19 26 25 23 23 23 23 26 26 26 27 26 27 28 29 30 30 30 31 31 33 33 34 34 33 33 35 34 35 35 36 36 37 37 37 37 37 37 36 35
21 23 22 19 19 23 26 21 23 23 23 24 24 25 25 25 26 27 28 26 27 28 29 31 30 32 33 33 33 34 35 33 34 32 31 34 35 36 36 37 37 37 37 37 36
21 25 22 21 20 26 24 23 23 23 22 22 23 23 24 24 25 26 27 25 25 27 28 31 30 31 32 31 32 32 32 33 34 34 33 33 35 37 37 37 36 37 37 37 36
24 25 22 21 25 24 24 22 17 22 23 22 23 23 23 23 24 25 25 24 24 25 28 30 30 29 30 32 33 33 32 33 32 32 34 35 35 38 36 36 35 36 34 36 37
24 24 22 23 24 24 22 22 21 21 21 21 21 21 22 22 22 24 24 24 23 24 24 28 29 29 29 30 31 31 33 33 34 34 33 32 34 37 36 34 34 34 33 33 35
23 24 24 23 22 22 22 21 21 20 20 20 20 21 21 22 23 22 23 23 24 23 20 22 28 29 29 30 31 29 31 33 33 32 33 33 34 36 36 35 32 33 31 32 32
22 21 19 22 21 21 21 20 20 20 20 20 21 20 19 20 21 22 22 22 24 22 24 25 26 28 29 31 31 31 31 31 31 33 33 34 34 35 36 35 31 30 30 30 30
21 21 20 20 19 20 17 20 19 19 19 20 19 19 19 19 19 18 20 20 21 22 22 24 25 26 27 30 30 30 31 32 32 32 32 33 34 35 32 31 29 27 28 27 27
17 17 20 15 20 20 20 19 19 19 19 19 18 18 19 19 19 19 19 20 20 19 20 22 24 25 27 29 29 28 30 31 31 32 32 32 33 34 28 24 22 23 22 21 20
Height
815 812 810 808 804 801 799 796 793 791 788 786 784 781 779 776 773 772 767 767 768 770 774 777 777 776 779 775 777 776 776 784 787 775 780 770 774 772 774 783 782 784 786 798 808
814 812 809 807 803 801 798 796 793 790 787 785 784 781 778 775 773 768 766 765 767 769 774 777 774 774 778 777 780 783 776 778 772 767 771 771 769 775 780 785 790 789 793 803 810
813 810 808 806 803 800 797 794 791 788 786 784 782 780 778 775 770 758 763 764 766 769 773 776 776 771 776 769 774 774 784 775 770 768 775 774 777 770 779 790 787 793 797 804 809
813 810 807 804 801 798 795 792 788 785 783 782 781 779 777 777 777 763 763 764 767 771 772 771 774 769 767 771 765 772 775 769 772 768 774 778 784 777 778 787 783 792 797 803 808
813 810 807 803 800 797 793 789 786 783 781 780 779 778 777 771 763 765 762 764 769 771 769 767 768 768 767 759 760 763 763 764 764 771 773 778 783 785 789 786 788 795 799 802 805
811 808 805 801 798 794 790 786 782 780 779 778 778 778 776 774 766 767 767 768 769 769 768 766 764 760 761 761 761 756 761 766 766 775 776 781 787 784 790 788 793 797 798 800 804
809 806 803 799 796 793 788 783 779 776 775 777 777 777 773 764 768 768 768 769 769 769 766 766 765 766 758 762 758 759 772 769 770 773 777 775 794 791 789 790 798 798 797 800 804
808 805 801 798 794 790 786 782 779 776 775 776 777 778 766 767 768 768 769 769 770 770 769 768 767 764 764 756 760 764 763 777 771 772 774 778 789 788 787 789 798 793 797 800 804
806 803 799 795 792 788 785 782 780 778 777 777 778 776 763 767 766 765 767 767 769 770 771 770 766 761 761 765 768 765 769 773 779 767 775 779 782 781 783 785 790 792 795 798 802
804 800 797 793 790 787 784 783 781 780 779 779 778 777 763 762 763 763 765 767 765 766 770 769 764 765 760 760 780 768 770 768 775 769 776 780 779 777 780 781 782 787 792 796 798
802 798 794 792 789 787 785 783 779 776 775 770 767 766 761 764 764 761 763 765 762 763 770 763 770 772 758 753 749 758 760 767 767 768 774 773 773 767 775 778 780 783 788 792 795
800 796 793 790 788 787 785 781 788 790 778 766 768 767 765 767 766 758 761 762 762 766 757 764 770 751 746 748 755 761 766 766 767 765 771 767 769 760 764 773 771 775 781 786 790
799 795 791 789 788 789 787 789 790 789 777 765 764 763 762 765 760 753 756 752 756 760 754 759 754 745 751 755 763 759 764 760 767 767 763 769 766 762 760 764 769 768 772 778 783
796 792 790 788 790 789 788 790 788 788 774 767 761 762 760 760 759 750 749 750 751 753 748 751 739 747 753 761 757 765 747 756 764 772 776 763 776 759 757 765 767 768 769 771 777
795 791 790 788 791 787 792 789 788 787 789 765 760 760 754 762 752 747 747 747 751 748 746 751 745 751 759 754 748 758 738 756 758 766 765 763 777 746 748 764 761 759 760 762 767
795 793 791 791 791 791 789 787 787 783 792 773 761 761 756 752 751 744 748 745 739 744 738 741 731 737 743 739 741 743 755 760 761 762 780 759 765 751 744 745 746 749 753 756 759
796 794 792 791 791 789 787 782 784 788 776 780 775 763 759 757 751 749 750 752 752 763 758 749 741 739 735 747 741 749 761 785 791 782 785 746 768 753 731 730 731 737 742 747 753
796 795 794 792 790 787 784 777 798 793 789 777 773 764 764 760 752 749 748 749 740 738 742 755 759 742 735 737 750 753 752 767 798 780 766 742 772 748 724 719 717 722 729 738 747
795 795 795 794 790 787 777 787 799 799 793 790 774 772 764 759 763 754 746 743 737 738 748 742 747 728 729 730 733 748 756 737 755 743 758 742 742 727 722 722 722 724 725 731 737
796 793 794 792 789 785 778 801 796 796 794 787 789 779 779 771 763 752 748 754 748 745 739 731 750 728 730 731 731 732 731 761 749 779 785 758 751 747 730 729 724 725 723 724 728
795 787 794 791 789 778 788 796 796 794 796 796 791 787 781 778 771 761 756 765 760 750 744 733 743 735 734 742 743 746 749 741 739 748 766 774 752 714 724 720 726 721 715 716 722
791 787 794 791 785 787 790 798 808 797 796 796 792 790 788 784 778 769 766 766 765 757 747 737 738 748 745 730 723 725 737 734 751 760 746 745 744 701 716 721 721 717 720 714 715
789 789 793 790 788 790 797 798 800 800 801 801 799 798 793 791 790 771 771 765 768 764 765 746 746 751 747 739 735 738 728 727 729 732 746 761 746 706 714 723 723 722 723 723 719
793 790 791 792 796 795 799 802 802 804 803 805 804 798 797 790 782 782 776 771 768 769 774 767 741 740 741 736 727 746 735 725 727 742 742 739 738 714 718 721 730 726 729 727 728
800 803 806 796 799 800 801 804 803 805 804 803 798 800 803 799 789 782 782 779 765 771 761 757 753 737 730 719 716 723 730 730 734 727 737 731 730 720 713 718 734 734 735 735 736
801 803 805 804 807 803 811 805 808 808 807 802 806 804 803 803 799 799 792 789 781 772 770 758 756 747 740 724 726 728 721 721 724 728 729 726 726 710 720 729 741 748 742 746 750
814 813 808 815 804 803 803 808 809 809 804 806 808 806 802 799 800 797 793 788 785 786 783 772 761 750 742 725 729 740 721 721 721 719 723 737 726 715 740 756 763 762 761 764 767
Wind_Speed
15 15 15 15 15 15 16 16 15 14 14 14 15 16 17 18 16 5 6 2 8 23 16 11 10 10 5 2 0 1 3 5 5 7 8 11 9 7 9 12 4 4 13 23 24
16 16 16 16 16 16 16 16 16 14 14 13 13 14 15 18 10 10 6 6 9 25 16 12 9 9 1 1 2 1 0 5 2 5 11 8 7 13 10 10 7 11 20 25 23
16 17 17 16 16 17 17 17 17 16 13 12 12 12 13 12 8 2 4 9 14 22 12 9 7 6 3 2 4 1 3 5 6 6 12 10 7 7 9 3 10 17 22 21 22
17 17 17 17 17 17 18 19 19 16 12 11 10 10 10 3 5 3 4 12 21 17 12 10 8 7 2 4 4 6 4 2 3 6 5 4 6 6 1 6 10 19 21 20 17
17 17 17 17 17 18 19 21 18 15 11 8 7 8 3 7 3 5 5 16 22 13 15 11 7 6 4 3 3 7 7 5 10 7 7 7 7 7 7 9 16 18 19 18 15
18 18 18 18 18 18 21 19 19 15 10 7 4 4 5 11 2 2 10 20 17 14 13 10 3 5 6 3 5 4 6 9 9 9 8 7 7 5 7 14 16 17 18 16 14
18 18 18 18 18 17 19 20 14 11 8 5 3 1 6 4 2 5 11 16 14 14 10 10 8 8 8 4 3 9 9 8 7 9 5 6 7 6 12 16 15 18 17 16 14
18 18 19 19 17 18 16 12 11 9 1 3 3 2 5 2 3 6 11 13 14 11 11 5 8 10 9 6 7 6 8 10 11 9 6 7 7 9 14 17 17 18 15 15 15
18 19 19 17 15 15 12 6 8 7 5 5 1 5 2 2 7 13 12 10 13 9 12 6 9 11 7 13 9 9 6 5 6 9 5 9 3 11 14 16 18 17 17 15 15
20 21 18 15 14 9 7 1 3 2 2 1 2 5 5 2 1 5 12 14 9 11 10 10 8 11 12 12 12 11 9 6 3 8 8 8 7 10 14 16 17 18 17 16 16
22 19 15 13 11 6 4 5 4 6 8 9 9 11 7 6 6 9 11 16 14 16 16 17 13 16 19 18 10 6 9 7 5 2 7 8 7 9 13 15 17 17 18 18 17
23 17 14 12 4 4 6 4 6 5 7 5 8 10 15 9 6 11 11 16 16 19 21 15 20 20 17 16 15 10 10 9 5 5 6 3 8 10 14 17 18 19 19 19 18
21 16 13 10 3 4 6 6 7 3 6 1 2 4 3 7 8 11 15 20 21 24 26 23 23 21 18 18 15 17 14 9 7 5 10 7 14 10 12 15 16 17 18 18 19
20 15 10 3 3 1 3 6 10 4 5 4 2 3 1 4 7 17 16 13 16 26 24 24 23 23 20 20 19 19 16 9 8 8 6 2 1 13 13 16 19 20 19 20 21
18 13 9 6 3 1 4 9 3 4 5 5 2 2 7 7 8 9 18 13 20 20 22 24 23 20 22 22 20 18 9 12 12 12 11 12 7 5 14 14 19 22 23 22 22
12 10 8 5 3 4 8 6 4 6 1 3 3 7 9 5 7 2 11 13 12 21 22 24 18 18 24 22 21 19 5 9 11 13 13 15 7 7 11 14 18 20 23 22 22
6 9 11 6 5 8 7 5 5 4 5 7 9 12 10 4 5 9 13 19 13 18 20 24 22 18 17 22 21 23 17 10 12 12 13 6 7 13 1 5 9 21 24 24 22
1 4 6 5 6 8 5 5 2 5 7 12 10 13 4 8 1 8 9 18 21 16 17 19 25 23 18 26 22 23 23 15 18 13 14 13 7 6 3 2 8 13 20 23 23
3 1 2 6 8 6 6 3 5 6 9 10 14 9 2 5 5 5 12 15 16 16 20 21 24 25 17 20 23 23 24 23 22 17 13 12 14 9 10 5 8 12 15 21 24
2 3 4 9 8 9 1 5 2 6 9 6 8 5 11 11 10 7 9 7 5 3 9 9 14 16 22 16 19 21 18 20 16 23 19 17 16 8 12 9 6 8 13 18 23
4 4 5 8 5 3 3 5 2 6 9 8 8 11 10 10 13 7 5 8 10 5 7 12 12 16 14 21 23 15 15 18 18 19 16 16 16 12 14 2 4 4 8 15 19
4 2 8 5 3 1 3 3 1 6 8 4 7 9 9 11 10 7 4 9 13 8 8 15 10 14 21 20 21 25 24 22 16 23 18 15 14 8 8 1 5 5 3 8 18
2 2 4 7 2 2 4 3 2 6 6 7 6 6 8 10 7 5 6 6 12 8 7 0 12 13 18 11 12 19 23 25 23 17 20 17 17 12 9 5 6 6 5 3 10
3 2 3 3 1 4 1 1 1 2 1 6 7 8 10 10 5 9 10 5 13 7 10 4 14 16 15 18 16 20 23 24 24 18 19 20 22 15 9 1 6 7 5 3 7
4 3 3 1 4 3 3 2 4 4 1 3 4 5 8 6 10 9 8 14 7 4 9 5 11 16 21 14 13 20 20 25 25 25 22 18 22 19 14 3 7 6 6 6 5
3 3 2 3 1 3 2 1 3 4 4 3 6 9 8 10 9 13 14 11 8 6 10 8 7 7 15 18 15 16 21 19 25 25 22 22 16 2 9 6 5 5 5 7 7
2 0 4 4 2 4 2 2 2 5 1 6 8 10 10 9 11 15 16 16 16 16 10 9 6 7 14 14 17 20 19 18 15 16 19 22 20 7 7 9 7 5 9 8 7
Wind_Direction
18 14 10 6 3 0 358 352 345 335 329 326 326 330 330 328 329 297 255 148 170 166 158 157 184 176 108 103 278 320 236 136 126 132 132 146 125 114 106 137 101 115 140 141 146
11 6 5 1 359 354 351 347 342 333 324 320 322 326 328 328 311 257 260 215 184 166 161 166 180 163 157 224 167 318 286 65 13 127 142 133 124 133 137 138 133 119 114 136 150
4 2 358 354 352 346 343 340 335 327 318 314 316 323 326 325 273 139 217 187 182 168 177 173 189 203 197 240 165 174 56 139 114 113 142 151 129 144 129 131 156 149 143 149 156
357 354 351 349 345 341 337 334 328 320 312 309 312 321 323 287 238 55 238 184 177 171 191 183 180 239 240 188 204 187 208 162 92 129 114 121 107 138 102 86 140 143 146 152 162
352 349 347 343 339 335 334 330 326 315 303 299 309 327 309 223 252 354 183 175 171 194 204 204 221 252 312 342 198 238 114 118 157 136 131 156 133 124 108 128 134 149 151 156 161
350 348 345 342 339 335 333 329 322 307 290 281 289 323 258 236 68 133 146 164 183 196 216 225 276 323 291 347 282 125 118 124 148 155 164 160 148 176 122 143 143 159 160 160 157
350 348 346 341 339 336 334 331 332 318 279 254 234 279 251 240 109 188 176 182 192 206 221 227 274 290 343 153 136 137 142 139 146 159 155 189 192 201 150 156 160 178 171 164 163
352 349 345 341 339 337 336 344 350 348 329 183 173 241 263 163 204 181 182 202 213 223 241 276 263 265 268 119 167 191 194 189 152 182 139 225 97 153 164 170 172 176 175 174 170
349 349 343 340 340 339 341 8 27 41 83 117 195 257 226 172 216 215 198 205 203 221 215 258 241 235 198 209 199 195 195 212 160 203 151 232 90 149 175 180 179 175 183 181 174
348 344 343 342 343 344 338 325 350 16 53 231 242 244 205 130 155 181 204 219 197 194 203 224 220 215 217 218 218 198 217 174 169 166 211 208 242 154 182 192 180 180 185 185 183
343 341 348 348 346 355 355 279 240 179 229 293 319 293 268 323 252 215 192 194 210 195 199 200 213 215 208 219 238 295 242 180 119 121 215 222 240 196 180 196 189 187 187 189 191
346 349 353 351 10 12 14 43 47 342 301 280 278 271 272 267 270 210 186 193 201 201 205 191 222 213 225 222 225 226 229 197 129 147 236 217 249 206 186 201 202 194 187 190 190
347 346 352 351 104 49 54 58 336 278 262 156 292 304 3 212 231 222 200 210 200 210 203 214 214 223 218 222 228 232 229 219 272 161 228 268 245 201 194 194 202 205 193 192 192
348 350 1 38 126 84 94 337 326 219 269 96 146 109 182 307 244 226 208 208 217 217 211 222 223 213 216 226 216 224 219 261 221 242 260 234 316 177 179 194 195 202 200 195 192
352 6 21 44 4 326 351 332 312 232 275 40 63 55 289 253 337 175 209 210 232 214 212 213 220 203 216 217 213 239 219 227 246 250 262 214 250 146 172 200 201 202 204 200 192
7 22 39 52 74 352 323 313 231 239 75 353 326 331 318 199 241 261 196 226 231 226 220 224 204 217 223 219 224 227 212 230 235 247 247 247 235 253 180 220 200 200 202 202 196
24 57 60 55 21 327 314 223 247 303 0 2 339 327 312 313 247 236 203 199 203 208 205 215 208 216 234 218 222 220 210 214 216 216 235 197 240 249 193 164 214 195 201 199 200
68 71 29 13 327 326 271 227 344 9 353 333 325 306 309 356 234 239 228 213 221 229 214 208 207 203 203 221 202 215 221 227 221 226 227 180 238 228 89 357 182 202 198 199 199
174 117 26 342 328 322 259 30 29 7 343 330 303 307 350 33 308 288 230 224 203 219 235 211 219 188 211 212 221 201 221 234 245 249 254 211 221 247 243 249 198 191 194 198 200
213 217 46 336 322 271 322 74 84 11 334 320 325 342 324 348 341 304 190 11 354 294 288 236 232 187 205 228 221 241 208 223 231 236 229 239 242 238 176 164 135 195 207 204 201
214 233 21 328 292 265 21 60 57 25 353 337 336 315 326 343 329 318 5 81 7 305 276 248 238 203 201 208 214 200 233 223 227 229 233 232 234 206 230 299 311 300 225 202 199
281 243 2 328 259 319 63 29 338 359 4 330 315 317 320 325 314 311 352 21 3 333 230 222 241 231 205 227 225 221 215 223 220 217 230 255 229 93 123 159 2 14 351 235 191
331 14 23 299 296 99 122 114 14 357 13 351 323 350 323 306 304 329 338 28 2 356 341 41 225 229 232 184 215 231 228 222 226 239 220 225 232 151 135 77 30 33 43 183 196
276 225 116 68 33 319 268 106 301 84 334 339 311 305 320 299 261 292 304 338 337 343 320 252 249 239 225 225 208 213 227 225 226 223 228 219 237 230 184 169 16 56 54 92 189
349 58 3 49 81 53 285 311 301 346 314 320 226 333 328 290 304 274 326 327 282 20 327 322 262 233 248 266 256 201 215 223 226 233 227 230 225 242 251 16 48 10 67 86 113
3 314 173 101 173 256 169 76 338 340 293 302 303 330 311 294 305 304 311 306 293 326 327 324 267 274 250 234 235 246 219 216 224 230 242 249 248 233 46 89 51 47 74 82 72
44 72 283 130 210 269 56 30 344 317 185 286 304 306 305 327 319 298 289 281 270 287 298 297 308 267 240 204 220 233 219 222 221 221 228 234 240 255 92 55 33 28 52 60 57